,,Stat6,,Stat2,,Stat8,,Stat9,,Stat10,,Wind1,,Wind1,
time,status,PA1M_AVG,status,PR1M_SUM,status,RH1M_AVG,status,SR1M_AVG,status,TA1M_AVG,status,W1dAve1m,status,W1sAve1m,
2003-11-25, 00:00:01,VALID,919.941,VALID,0,VALID,100,VALID,-0.0679233,VALID,19.8028,VALID,16,VALID,0.278088,
2003-11-25, 00:01:00,VALID,919.923,VALID,0,VALID,100,VALID,-0.0679233,VALID,19.8026,VALID,17,VALID,0.652083,
2003-11-25, 00:02:00,VALID,919.904,VALID,0,VALID,100,VALID,-0.101885,VALID,19.7904,VALID,26,VALID,0.364211,
2003-11-25, 00:03:00,VALID,919.878,VALID,0,VALID,100,VALID,-0.0849042,VALID,19.7802,VALID,29,VALID,0.486793,
2003-11-25, 00:04:00,VALID,919.861,VALID,0,VALID,100,VALID,-0.101885,VALID,19.7546,VALID,10,VALID,0.594336,
2003-11-25, 00:05:00,VALID,919.833,VALID,0,VALID,100,VALID,-0.101885,VALID,19.7482,VALID,13,VALID,0.704078,
2003-11-25, 00:06:00,VALID,919.817,VALID,0,VALID,100,VALID,-0.0849042,VALID,19.7184,VALID,327,VALID,0.354226,
2003-11-25, 00:07:00,VALID,919.797,VALID,0,VALID,100,VALID,-0.101885,VALID,19.703,VALID,27,VALID,1.14653,
2003-11-25, 00:08:00,VALID,919.762,VALID,0,VALID,100,VALID,-0.101885,VALID,19.7092,VALID,18,VALID,1.20952,
2003-11-25, 00:09:00,VALID,919.747,VALID,0,VALID,100,VALID,-0.101885,VALID,19.7094,VALID,8,VALID,0.691679,
2003-11-25, 00:10:00,VALID,919.733,VALID,0,VALID,100,VALID,-0.135847,VALID,19.7035,VALID,20,VALID,0.852121,
2003-11-25, 00:11:00,VALID,919.72,VALID,0,VALID,100,VALID,-0.0849042,VALID,19.7027,VALID,18,VALID,0.272274,
2003-11-25, 00:12:00,VALID,919.708,VALID,0,VALID,100,VALID,-0.101885,VALID,19.6866,VALID,3,VALID,0.176136,
2003-11-25, 00:13:00,VALID,919.692,VALID,0,VALID,100,VALID,-0.101885,VALID,19.6903,VALID,3,VALID,0.303354,
2003-11-25, 00:14:00,VALID,919.7,VALID,0,VALID,100,VALID,-0.0849042,VALID,19.6838,VALID,4,VALID,0.493389,
2003-11-25, 00:15:00,VALID,919.687,VALID,0,VALID,100,VALID,-0.0849042,VALID,19.6838,VALID,28,VALID,0.788553,
2003-11-25, 00:16:00,VALID,919.689,VALID,0,VALID,100,VALID,-0.0849042,VALID,19.6997,VALID,24,VALID,0.515811,
2003-11-25, 00:17:00,VALID,919.691,VALID,0,VALID,100,VALID,-0.101885,VALID,19.703,VALID,29,VALID,0,
2003-11-25, 00:18:00,VALID,919.685,VALID,0,VALID,100,VALID,-0.118866,VALID,19.6997,VALID,29,VALID,0,
2003-11-25, 00:19:00,VALID,919.694,VALID,0,VALID,100,VALID,-0.118866,VALID,19.6935,VALID,29,VALID,0.199653,
2003-11-25, 00:20:00,VALID,919.702,VALID,0,VALID,100,VALID,-0.101885,VALID,19.7159,VALID,29,VALID,0,
2003-11-25, 00:21:00,VALID,919.692,VALID,0,VALID,100,VALID,0,VALID,19.7151,VALID,29,VALID,0,
2003-11-25, 00:22:00,VALID,919.693,VALID,0,VALID,100,VALID,0,VALID,19.7236,VALID,32,VALID,0.12128,
2003-11-25, 00:23:00,VALID,919.691,VALID,0,VALID,100,VALID,0,VALID,19.7114,VALID,120,VALID,0.260074,
2003-11-25, 00:24:00,VALID,919.692,VALID,0,VALID,100,VALID,0,VALID,19.6888,VALID,121,VALID,0.159702,
2003-11-25, 00:25:00,VALID,919.688,VALID,0,VALID,100,VALID,0,VALID,19.6756,VALID,121,VALID,0.000347222,
2003-11-25, 00:26:00,VALID,919.693,VALID,0,VALID,100,VALID,-0.0169808,VALID,19.6759,VALID,119,VALID,0.269985,
2003-11-25, 00:27:00,VALID,919.714,VALID,0,VALID,100,VALID,-0.0169808,VALID,19.6759,VALID,115,VALID,0.0541424,
2003-11-25, 00:28:00,VALID,919.729,VALID,0,VALID,100,VALID,0.0339617,VALID,19.6821,VALID,114,VALID,0.0281613,
2003-11-25, 00:29:00,VALID,919.732,VALID,0,VALID,100,VALID,0,VALID,19.6888,VALID,114,VALID,0.108203,
2003-11-25, 00:30:00,VALID,919.722,VALID,0,VALID,100,VALID,0,VALID,19.6953,VALID,114,VALID,0,
2003-11-25, 00:31:00,VALID,919.709,VALID,0,VALID,100,VALID,0,VALID,19.7049,VALID,114,VALID,0.00109012,
2003-11-25, 00:32:00,VALID,919.685,VALID,0,VALID,100,VALID,0,VALID,19.7079,VALID,114,VALID,0.000372024,
2003-11-25, 00:33:00,VALID,919.691,VALID,0,VALID,100,VALID,0,VALID,19.7208,VALID,171,VALID,0.426417,
2003-11-25, 00:34:00,VALID,919.679,VALID,0,VALID,100,VALID,0,VALID,19.7052,VALID,234,VALID,0.414807,
2003-11-25, 00:35:00,VALID,919.676,VALID,0,VALID,100,VALID,0,VALID,19.6955,VALID,234,VALID,0.191602,
2003-11-25, 00:36:00,VALID,919.675,VALID,0,VALID,100,VALID,0,VALID,19.6761,VALID,234,VALID,0.109201,
2003-11-25, 00:37:00,VALID,919.657,VALID,0,VALID,100,VALID,0,VALID,19.6754,VALID,234,VALID,0,
2003-11-25, 00:38:00,VALID,919.656,VALID,0,VALID,100,VALID,0,VALID,19.6848,VALID,234,VALID,0.000952744,
2003-11-25, 00:39:00,VALID,919.648,VALID,0,VALID,100,VALID,0,VALID,19.6987,VALID,234,VALID,0.0594815,
2003-11-25, 00:40:00,VALID,919.645,VALID,0,VALID,100,VALID,0,VALID,19.6883,VALID,314,VALID,0.300781,
2003-11-25, 00:41:00,VALID,919.639,VALID,0,VALID,100,VALID,0,VALID,19.7308,VALID,21,VALID,0.213995,
2003-11-25, 00:42:00,VALID,919.631,VALID,0,VALID,100,VALID,0,VALID,19.7305,VALID,347,VALID,0.116655,
2003-11-25, 00:43:00,VALID,919.618,VALID,0,VALID,100,VALID,0.0169808,VALID,19.6853,VALID,283,VALID,0.164595,
2003-11-25, 00:44:00,VALID,919.622,VALID,0,VALID,100,VALID,0,VALID,19.6759,VALID,12,VALID,0.275923,
2003-11-25, 00:45:00,VALID,919.604,VALID,0,VALID,100,VALID,0,VALID,19.7114,VALID,349,VALID,0.323765,
2003-11-25, 00:46:00,VALID,919.602,VALID,0,VALID,100,VALID,0.0169808,VALID,19.7146,VALID,293,VALID,0.200994,
2003-11-25, 00:47:00,VALID,919.619,VALID,0,VALID,100,VALID,0.0509425,VALID,19.7139,VALID,317,VALID,0.174132,
2003-11-25, 00:48:00,VALID,919.51,VALID,0,VALID,100,VALID,0,VALID,19.624,VALID,267,VALID,1.32972,
2003-11-25, 00:49:00,VALID,919.516,VALID,0,VALID,100,VALID,0,VALID,19.495,VALID,193,VALID,0.846701,
2003-11-25, 00:50:00,VALID,919.501,VALID,0.2,VALID,100,VALID,-0.0339617,VALID,19.4729,VALID,220,VALID,0.825,
2003-11-25, 00:51:00,VALID,919.48,VALID,0,VALID,100,VALID,-0.0339617,VALID,19.4183,VALID,255,VALID,1.33147,
2003-11-25, 00:52:00,VALID,919.444,VALID,0,VALID,100,VALID,-0.0169808,VALID,19.4212,VALID,355,VALID,1.23698,
2003-11-25, 00:53:00,VALID,919.449,VALID,0,VALID,100,VALID,-0.0169808,VALID,19.4145,VALID,228,VALID,1.27704,
2003-11-25, 00:54:00,VALID,919.442,VALID,0,VALID,100,VALID,-0.0169808,VALID,19.3698,VALID,225,VALID,1.21154,
2003-11-25, 00:55:00,VALID,919.428,VALID,0,VALID,100,VALID,-0.0169808,VALID,19.3052,VALID,260,VALID,1.40873,
2003-11-25, 00:56:00,VALID,919.415,VALID,0,VALID,100,VALID,-0.0339617,VALID,19.2536,VALID,249,VALID,0.575,
2003-11-25, 00:57:00,VALID,919.412,VALID,0.2,VALID,100,VALID,-0.0169808,VALID,19.2404,VALID,288,VALID,0.519077,
2003-11-25, 00:58:00,VALID,919.378,VALID,0,VALID,100,VALID,0,VALID,19.2993,VALID,14,VALID,1.36909,
2003-11-25, 00:59:00,VALID,919.366,VALID,0,VALID,100,VALID,-0.0169808,VALID,19.3308,VALID,24,VALID,1.08789,
2003-11-25, 01:00:00,VALID,919.357,VALID,0,VALID,100,VALID,0,VALID,19.3569,VALID,18,VALID,0.888393,
2003-11-25, 01:01:00,VALID,919.346,VALID,0.2,VALID,100,VALID,-0.0169808,VALID,19.3728,VALID,7,VALID,0.116616,
2003-11-25, 01:02:00,VALID,919.337,VALID,0,VALID,100,VALID,-0.0169808,VALID,19.3989,VALID,12,VALID,0.745908,
2003-11-25, 01:03:00,VALID,919.321,VALID,0.2,VALID,100,VALID,-0.0509425,VALID,19.4086,VALID,5,VALID,0.448864,
2003-11-25, 01:04:00,VALID,919.291,VALID,0.2,VALID,100,VALID,-0.0169808,VALID,19.4212,VALID,4,VALID,0.0729167,
2003-11-25, 01:05:00,VALID,919.258,VALID,0.4,VALID,100,VALID,-0.0339617,VALID,19.4473,VALID,23,VALID,0.402734,
2003-11-25, 01:06:01,VALID,919.238,VALID,0,VALID,100,VALID,-0.0169808,VALID,19.4113,VALID,20,VALID,0.498547,
2003-11-25, 01:07:00,VALID,919.219,VALID,0.2,VALID,100,VALID,0,VALID,19.3959,VALID,12,VALID,0.992551,
2003-11-25, 01:08:00,VALID,919.207,VALID,0,VALID,100,VALID,0,VALID,19.3765,VALID,1,VALID,1.06813,
2003-11-25, 01:09:00,VALID,919.205,VALID,0,VALID,100,VALID,-0.0339617,VALID,19.3412,VALID,330,VALID,0.659624,
2003-11-25, 01:10:00,VALID,919.181,VALID,0,VALID,100,VALID,-0.0169808,VALID,19.3308,VALID,13,VALID,0.835938,
2003-11-25, 01:11:00,VALID,919.159,VALID,0,VALID,100,VALID,0,VALID,19.3345,VALID,360,VALID,1.12109,
2003-11-25, 01:12:01,VALID,919.124,VALID,0.2,VALID,100,VALID,-0.0169808,VALID,19.3085,VALID,328,VALID,1.51926,
2003-11-25, 01:13:00,VALID,919.113,VALID,0,VALID,100,VALID,-0.0169808,VALID,19.2955,VALID,326,VALID,1.1986,
2003-11-25, 01:14:00,VALID,919.105,VALID,0.2,VALID,100,VALID,0,VALID,19.3144,VALID,358,VALID,0.741235,
2003-11-25, 01:15:00,VALID,919.095,VALID,0,VALID,100,VALID,0,VALID,19.3283,VALID,272,VALID,0.190104,
2003-11-25, 01:16:00,VALID,919.093,VALID,0.2,VALID,100,VALID,-0.0169808,VALID,19.3244,VALID,6,VALID,0.440168,
2003-11-25, 01:17:00,VALID,919.079,VALID,0.2,VALID,100,VALID,-0.0169808,VALID,19.3405,VALID,31,VALID,0.302269,
2003-11-25, 01:18:01,VALID,919.082,VALID,0,VALID,100,VALID,-0.0169808,VALID,19.3539,VALID,37,VALID,0.253516,
2003-11-25, 01:19:00,VALID,919.066,VALID,0.2,VALID,100,VALID,0,VALID,19.3701,VALID,12,VALID,1.12997,
2003-11-25, 01:20:00,VALID,919.077,VALID,0.2,VALID,100,VALID,0,VALID,19.3989,VALID,14,VALID,1.30214,
2003-11-25, 01:21:00,VALID,919.012,VALID,0.2,VALID,100,VALID,-0.0339617,VALID,19.3733,VALID,354,VALID,1.7182,
2003-11-25, 01:22:01,VALID,919.007,VALID,0,VALID,100,VALID,0,VALID,19.3445,VALID,5,VALID,1.64043,
2003-11-25, 01:23:00,VALID,919.002,VALID,0,VALID,100,VALID,-0.0339617,VALID,19.3445,VALID,16,VALID,2.07127,
2003-11-25, 01:24:00,VALID,919.004,VALID,0,VALID,100,VALID,-0.0169808,VALID,19.3537,VALID,22,VALID,1.83739,
2003-11-25, 01:25:00,VALID,918.987,VALID,0.2,VALID,100,VALID,-0.0339617,VALID,19.3636,VALID,360,VALID,1.66921,
2003-11-25, 01:26:00,VALID,918.977,VALID,0,VALID,100,VALID,0,VALID,19.3276,VALID,304,VALID,1.84746,
2003-11-25, 01:27:00,VALID,918.964,VALID,0,VALID,100,VALID,0,VALID,19.263,VALID,8,VALID,1.56499,
2003-11-25, 01:28:00,VALID,918.965,VALID,0,VALID,100,VALID,-0.0169808,VALID,19.2831,VALID,11,VALID,0.979688,
2003-11-25, 01:29:01,VALID,918.957,VALID,0,VALID,100,VALID,-0.0169808,VALID,19.2764,VALID,6,VALID,1.65978,
2003-11-25, 01:30:00,VALID,918.956,VALID,0.2,VALID,100,VALID,-0.0339617,VALID,19.254,VALID,18,VALID,2.67541,
2003-11-25, 01:31:01,VALID,918.95,VALID,0,VALID,100,VALID,-0.0509425,VALID,19.2501,VALID,16,VALID,2.24352,
2003-11-25, 01:32:00,VALID,918.955,VALID,0,VALID,100,VALID,-0.0169808,VALID,19.2439,VALID,16,VALID,1.92793,
2003-11-25, 01:33:00,VALID,918.924,VALID,0,VALID,100,VALID,-0.0339617,VALID,19.1922,VALID,7,VALID,3.53392,
2003-11-25, 01:34:00,VALID,918.977,VALID,0,VALID,100,VALID,-0.0169808,VALID,19.1733,VALID,2,VALID,1.33365,
2003-11-25, 01:35:00,VALID,918.978,VALID,0,VALID,100,VALID,-0.0169808,VALID,19.1798,VALID,30,VALID,1.53198,
2003-11-25, 01:36:00,VALID,918.97,VALID,0.2,VALID,100,VALID,0,VALID,19.2026,VALID,359,VALID,1.13398,
2003-11-25, 01:37:00,VALID,918.988,VALID,0,VALID,100,VALID,-0.0509425,VALID,19.2059,VALID,7,VALID,0.817769,
2003-11-25, 01:38:00,VALID,918.971,VALID,0,VALID,100,VALID,-0.0169808,VALID,19.2056,VALID,21,VALID,1.47847,
2003-11-25, 01:39:00,VALID,918.953,VALID,0,VALID,100,VALID,-0.0169808,VALID,19.2118,VALID,11,VALID,1.13986,
2003-11-25, 01:40:01,VALID,918.922,VALID,0,VALID,100,VALID,0,VALID,19.1857,VALID,10,VALID,2.95117,
2003-11-25, 01:41:01,VALID,918.93,VALID,0.2,VALID,100,VALID,-0.0169808,VALID,19.141,VALID,32,VALID,1.87962,
2003-11-25, 01:42:00,VALID,918.928,VALID,0,VALID,100,VALID,-0.0169808,VALID,19.1505,VALID,344,VALID,1.45451,
2003-11-25, 01:43:00,VALID,918.927,VALID,0,VALID,100,VALID,-0.0509425,VALID,19.1472,VALID,13,VALID,0.888626,
2003-11-25, 01:44:00,VALID,918.942,VALID,0,VALID,100,VALID,-0.0169808,VALID,19.1537,VALID,359,VALID,0.778993,
2003-11-25, 01:45:00,VALID,918.905,VALID,0.2,VALID,100,VALID,-0.0509425,VALID,19.1443,VALID,41,VALID,0.895389,
2003-11-25, 01:46:01,VALID,918.915,VALID,0.2,VALID,100,VALID,-0.0849042,VALID,19.1542,VALID,22,VALID,0.823946,
2003-11-25, 01:47:00,VALID,918.891,VALID,0.2,VALID,100,VALID,-0.0679233,VALID,19.1673,VALID,11,VALID,1.36261,
2003-11-25, 01:48:00,VALID,918.874,VALID,0.2,VALID,100,VALID,-0.0509425,VALID,19.1803,VALID,143,VALID,0.809956,
2003-11-25, 01:49:00,VALID,918.888,VALID,0.2,VALID,100,VALID,0,VALID,19.183,VALID,16,VALID,0.851736,
2003-11-25, 01:50:01,VALID,918.869,VALID,0.6,VALID,100,VALID,-0.0339617,VALID,19.1832,VALID,32,VALID,0.892987,
2003-11-25, 01:51:01,VALID,918.892,VALID,0.4,VALID,100,VALID,-0.0339617,VALID,19.1929,VALID,16,VALID,0.300967,
2003-11-25, 01:52:00,VALID,918.906,VALID,0.4,VALID,100,VALID,-0.0169808,VALID,19.187,VALID,191,VALID,0.743421,
2003-11-25, 01:53:00,VALID,918.9,VALID,0.4,VALID,100,VALID,-0.0679233,VALID,19.1514,VALID,214,VALID,1.05759,
2003-11-25, 01:54:01,VALID,918.913,VALID,0.2,VALID,100,VALID,-0.0509425,VALID,19.1122,VALID,261,VALID,1.24467,
2003-11-25, 01:55:00,VALID,918.88,VALID,0.4,VALID,100,VALID,-0.0509425,VALID,19.106,VALID,335,VALID,1.96075,
2003-11-25, 01:56:00,VALID,918.937,VALID,0.2,VALID,100,VALID,0,VALID,19.1184,VALID,320,VALID,0.793341,
2003-11-25, 01:57:01,VALID,918.962,VALID,0.2,VALID,100,VALID,-0.0339617,VALID,19.1092,VALID,175,VALID,1.36428,
2003-11-25, 01:58:01,VALID,918.978,VALID,0.2,VALID,100,VALID,-0.0509425,VALID,19.0958,VALID,204,VALID,0.988459,
2003-11-25, 01:59:00,VALID,919.003,VALID,0.2,VALID,100,VALID,-0.0849042,VALID,19.0998,VALID,227,VALID,1.28348,
2003-11-25, 02:00:00,VALID,919.015,VALID,0.2,VALID,100,VALID,-0.0169808,VALID,19.0801,VALID,240,VALID,0.14566,
2003-11-25, 02:01:01,VALID,919.015,VALID,0.2,VALID,100,VALID,0,VALID,19.0898,VALID,239,VALID,0.538504,
2003-11-25, 02:02:01,VALID,919.027,VALID,0.2,VALID,100,VALID,-0.0169808,VALID,19.0801,VALID,297,VALID,1.08448,
2003-11-25, 02:03:00,VALID,919.007,VALID,0,VALID,100,VALID,-0.0509425,VALID,19.0541,VALID,50,VALID,0.613281,
2003-11-25, 02:04:01,VALID,918.996,VALID,0.2,VALID,100,VALID,-0.0339617,VALID,19.0769,VALID,222,VALID,0.366044,
2003-11-25, 02:05:01,VALID,918.993,VALID,0.2,VALID,100,VALID,-0.0509425,VALID,19.0801,VALID,349,VALID,0.321484,
2003-11-25, 02:06:00,VALID,918.998,VALID,0.4,VALID,100,VALID,-0.0679233,VALID,19.103,VALID,36,VALID,0.151758,
2003-11-25, 02:07:00,VALID,918.996,VALID,0.2,VALID,100,VALID,-0.0339617,VALID,19.1055,VALID,26,VALID,0.192487,
2003-11-25, 02:08:00,VALID,918.981,VALID,0.2,VALID,100,VALID,-0.0339617,VALID,19.1154,VALID,9,VALID,0.46875,
2003-11-25, 02:09:00,VALID,918.972,VALID,0.2,VALID,100,VALID,-0.0339617,VALID,19.0961,VALID,134,VALID,0.748698,
2003-11-25, 02:10:00,VALID,918.969,VALID,0.4,VALID,100,VALID,-0.0169808,VALID,19.099,VALID,191,VALID,0.654297,
2003-11-25, 02:11:01,VALID,918.973,VALID,0.2,VALID,100,VALID,-0.0169808,VALID,19.1025,VALID,30,VALID,0.887767,
2003-11-25, 02:12:00,VALID,918.962,VALID,0.2,VALID,100,VALID,-0.0339617,VALID,19.1286,VALID,27,VALID,0.897195,
2003-11-25, 02:13:00,VALID,918.961,VALID,0,VALID,100,VALID,-0.0509425,VALID,19.1221,VALID,6,VALID,0.742708,
2003-11-25, 02:14:00,VALID,918.944,VALID,0.2,VALID,100,VALID,-0.0509425,VALID,19.1219,VALID,39,VALID,0.751215,
2003-11-25, 02:15:01,VALID,918.939,VALID,0.2,VALID,100,VALID,-0.0339617,VALID,19.0963,VALID,16,VALID,1.24201,
2003-11-25, 02:16:00,VALID,918.94,VALID,0,VALID,100,VALID,-0.0509425,VALID,19.0896,VALID,351,VALID,0.674538,
2003-11-25, 02:17:00,VALID,918.935,VALID,0.2,VALID,100,VALID,-0.0339617,VALID,19.0831,VALID,318,VALID,0.655506,
2003-11-25, 02:18:01,VALID,918.947,VALID,0.2,VALID,100,VALID,-0.0169808,VALID,19.0508,VALID,46,VALID,1.17835,
2003-11-25, 02:19:00,VALID,918.938,VALID,0.2,VALID,100,VALID,-0.0169808,VALID,19.0471,VALID,43,VALID,1.22602,
2003-11-25, 02:20:00,VALID,918.935,VALID,0,VALID,100,VALID,-0.0169808,VALID,19.0543,VALID,29,VALID,0.71968,
2003-11-25, 02:21:00,VALID,918.927,VALID,0.2,VALID,100,VALID,-0.0169808,VALID,19.0479,VALID,9,VALID,0.908594,
2003-11-25, 02:22:00,VALID,918.936,VALID,0,VALID,100,VALID,-0.0509425,VALID,19.0382,VALID,14,VALID,1.10174,
2003-11-25, 02:23:00,VALID,918.933,VALID,0.2,VALID,100,VALID,-0.0339617,VALID,19.0474,VALID,21,VALID,1.26235,
2003-11-25, 02:24:00,VALID,918.932,VALID,0,VALID,100,VALID,-0.0169808,VALID,19.0603,VALID,17,VALID,1.32161,
2003-11-25, 02:25:01,VALID,918.927,VALID,0,VALID,100,VALID,-0.0339617,VALID,19.0382,VALID,8,VALID,1.22389,
2003-11-25, 02:26:00,VALID,918.94,VALID,0.2,VALID,100,VALID,-0.0679233,VALID,19.0352,VALID,22,VALID,1.48438,
2003-11-25, 02:27:01,VALID,918.94,VALID,0,VALID,100,VALID,-0.0849042,VALID,19.0416,VALID,20,VALID,1.33141,
2003-11-25, 02:28:00,VALID,918.935,VALID,0,VALID,100,VALID,-0.0339617,VALID,19.0513,VALID,21,VALID,1.33212,
2003-11-25, 02:29:00,VALID,918.927,VALID,0,VALID,100,VALID,-0.0169808,VALID,19.0312,VALID,11,VALID,1.50501,
2003-11-25, 02:30:01,VALID,918.933,VALID,0.2,VALID,100,VALID,-0.0339617,VALID,19.0315,VALID,48,VALID,0.835565,
2003-11-25, 02:31:00,VALID,918.947,VALID,0,VALID,100,VALID,-0.0509425,VALID,19.0188,VALID,177,VALID,0.56907,
2003-11-25, 02:32:01,VALID,918.959,VALID,0,VALID,100,VALID,-0.0679233,VALID,18.9927,VALID,22,VALID,0.829514,
2003-11-25, 02:33:00,VALID,918.966,VALID,0,VALID,100,VALID,-0.0339617,VALID,18.9833,VALID,28,VALID,0.368641,
2003-11-25, 02:34:01,VALID,918.957,VALID,0,VALID,100,VALID,-0.0339617,VALID,18.9731,VALID,49,VALID,0.1492,
2003-11-25, 02:35:00,VALID,918.945,VALID,0.2,VALID,100,VALID,-0.0509425,VALID,18.9763,VALID,9,VALID,1.31014,
2003-11-25, 02:36:01,VALID,918.94,VALID,0,VALID,100,VALID,0,VALID,18.9955,VALID,21,VALID,1.27307,
2003-11-25, 02:37:00,VALID,918.955,VALID,0.2,VALID,100,VALID,0,VALID,18.9893,VALID,7,VALID,1.67057,
2003-11-25, 02:38:00,VALID,918.982,VALID,0.2,VALID,100,VALID,0.0169808,VALID,18.9726,VALID,16,VALID,0.684524,
2003-11-25, 02:39:00,VALID,918.976,VALID,0.2,VALID,100,VALID,0,VALID,18.9793,VALID,22,VALID,0.255814,
2003-11-25, 02:40:00,VALID,918.964,VALID,0.4,VALID,100,VALID,0,VALID,18.9699,VALID,27,VALID,0.787427,
2003-11-25, 02:41:00,VALID,918.959,VALID,0.2,VALID,100,VALID,0,VALID,18.9669,VALID,321,VALID,0.303779,
2003-11-25, 02:42:01,VALID,918.954,VALID,0.2,VALID,100,VALID,0,VALID,18.9473,VALID,165,VALID,0.322409,
2003-11-25, 02:43:01,VALID,918.929,VALID,0.2,VALID,100,VALID,0,VALID,18.9346,VALID,26,VALID,0.612109,
2003-11-25, 02:44:01,VALID,918.917,VALID,0,VALID,100,VALID,-0.0339617,VALID,18.9118,VALID,18,VALID,0.38418,
2003-11-25, 02:45:00,VALID,918.9,VALID,0.2,VALID,100,VALID,-0.0169808,VALID,18.9189,VALID,28,VALID,0.6492,
2003-11-25, 02:46:00,VALID,918.919,VALID,0,VALID,100,VALID,0,VALID,18.9053,VALID,19,VALID,0.702753,
2003-11-25, 02:47:00,VALID,918.912,VALID,0.2,VALID,100,VALID,0,VALID,18.8986,VALID,14,VALID,0.642149,
2003-11-25, 02:48:00,VALID,918.902,VALID,0,VALID,100,VALID,-0.0169808,VALID,18.9051,VALID,27,VALID,1.00279,
2003-11-25, 02:49:00,VALID,918.896,VALID,0.2,VALID,100,VALID,0,VALID,18.9055,VALID,26,VALID,1.0611,
2003-11-25, 02:50:01,VALID,918.887,VALID,0,VALID,100,VALID,0,VALID,18.918,VALID,24,VALID,0.412109,
2003-11-25, 02:51:01,VALID,918.869,VALID,0,VALID,100,VALID,0,VALID,18.9021,VALID,16,VALID,0.521307,
2003-11-25, 02:52:01,VALID,918.876,VALID,0.2,VALID,100,VALID,-0.0169808,VALID,18.8825,VALID,20,VALID,1.00747,
2003-11-25, 02:53:00,VALID,918.875,VALID,0,VALID,100,VALID,-0.0169808,VALID,18.8663,VALID,20,VALID,1.20713,
2003-11-25, 02:54:00,VALID,918.864,VALID,0,VALID,100,VALID,0,VALID,18.8758,VALID,32,VALID,0.53125,
2003-11-25, 02:55:00,VALID,918.845,VALID,0,VALID,100,VALID,0,VALID,18.8956,VALID,20,VALID,0.231383,
2003-11-25, 02:56:01,VALID,918.836,VALID,0.2,VALID,100,VALID,0,VALID,18.9118,VALID,19,VALID,0.0830793,
2003-11-25, 02:57:01,VALID,918.824,VALID,0,VALID,100,VALID,0,VALID,18.9023,VALID,20,VALID,1.17429,
2003-11-25, 02:58:00,VALID,918.805,VALID,0,VALID,100,VALID,0,VALID,18.8924,VALID,17,VALID,1.38834,
2003-11-25, 02:59:01,VALID,918.801,VALID,0,VALID,100,VALID,-0.0339617,VALID,18.8963,VALID,25,VALID,1.45417,
2003-11-25, 03:00:01,VALID,918.79,VALID,0.2,VALID,100,VALID,0,VALID,18.8988,VALID,25,VALID,1.61283,
2003-11-25, 03:01:01,VALID,918.794,VALID,0,VALID,100,VALID,-0.0169808,VALID,18.912,VALID,17,VALID,1.13739,
2003-11-25, 03:02:01,VALID,918.794,VALID,0,VALID,100,VALID,0,VALID,18.9217,VALID,12,VALID,1.07645,
2003-11-25, 03:03:01,VALID,918.79,VALID,0.2,VALID,100,VALID,-0.0339617,VALID,18.8894,VALID,4,VALID,0.978423,
2003-11-25, 03:04:00,VALID,918.784,VALID,0,VALID,100,VALID,-0.0339617,VALID,18.8338,VALID,22,VALID,1.35919,
2003-11-25, 03:05:01,VALID,918.783,VALID,0,VALID,100,VALID,-0.0169808,VALID,18.8536,VALID,19,VALID,1.02306,
2003-11-25, 03:06:01,VALID,918.776,VALID,0,VALID,100,VALID,-0.0849042,VALID,18.868,VALID,19,VALID,1.24442,
2003-11-25, 03:07:01,VALID,918.772,VALID,0,VALID,100,VALID,-0.135847,VALID,18.8717,VALID,22,VALID,1.11905,
2003-11-25, 03:08:01,VALID,918.774,VALID,0,VALID,100,VALID,-0.101885,VALID,18.8645,VALID,346,VALID,0.857701,
2003-11-25, 03:09:00,VALID,918.76,VALID,0,VALID,100,VALID,-0.101885,VALID,18.8585,VALID,14,VALID,0.921494,
2003-11-25, 03:10:01,VALID,918.771,VALID,0.2,VALID,100,VALID,-0.101885,VALID,18.8618,VALID,8,VALID,0.912202,
2003-11-25, 03:11:01,VALID,918.757,VALID,0,VALID,100,VALID,-0.0849042,VALID,18.8548,VALID,19,VALID,1.03582,
2003-11-25, 03:12:00,VALID,918.763,VALID,0,VALID,100,VALID,-0.0849042,VALID,18.8516,VALID,27,VALID,0.96503,
2003-11-25, 03:13:01,VALID,918.768,VALID,0,VALID,100,VALID,-0.118866,VALID,18.8747,VALID,23,VALID,0.55506,
2003-11-25, 03:14:01,VALID,918.763,VALID,0,VALID,100,VALID,-0.101885,VALID,18.8779,VALID,15,VALID,0.593936,
2003-11-25, 03:15:01,VALID,918.748,VALID,0,VALID,100,VALID,-0.101885,VALID,18.8747,VALID,6,VALID,0.40298,
2003-11-25, 03:16:01,VALID,918.747,VALID,0,VALID,100,VALID,-0.101885,VALID,18.8779,VALID,32,VALID,0.406795,
2003-11-25, 03:17:01,VALID,918.734,VALID,0,VALID,100,VALID,-0.101885,VALID,18.8878,VALID,40,VALID,0.414773,
2003-11-25, 03:18:01,VALID,918.712,VALID,0,VALID,100,VALID,-0.135847,VALID,18.8881,VALID,18,VALID,0.863009,
2003-11-25, 03:19:01,VALID,918.703,VALID,0,VALID,100,VALID,-0.118866,VALID,18.8747,VALID,12,VALID,0.0712003,
2003-11-25, 03:20:01,VALID,918.699,VALID,0,VALID,100,VALID,-0.152827,VALID,18.8645,VALID,34,VALID,0.182413,
2003-11-25, 03:21:01,VALID,918.682,VALID,0,VALID,100,VALID,-0.135847,VALID,18.8655,VALID,51,VALID,0.290015,
2003-11-25, 03:22:01,VALID,918.675,VALID,0,VALID,100,VALID,-0.118866,VALID,18.8652,VALID,64,VALID,0.330793,
2003-11-25, 03:23:01,VALID,918.659,VALID,0,VALID,100,VALID,-0.135847,VALID,18.8518,VALID,45,VALID,0.33113,
2003-11-25, 03:24:01,VALID,918.66,VALID,0,VALID,100,VALID,-0.101885,VALID,18.8518,VALID,21,VALID,0.525,
2003-11-25, 03:25:01,VALID,918.658,VALID,0,VALID,100,VALID,-0.0849042,VALID,18.8647,VALID,9,VALID,0.614955,
2003-11-25, 03:26:01,VALID,918.656,VALID,0.2,VALID,100,VALID,-0.101885,VALID,18.8814,VALID,16,VALID,0.707118,
2003-11-25, 03:27:01,VALID,918.642,VALID,0,VALID,100,VALID,-0.101885,VALID,18.8613,VALID,15,VALID,0.812678,
2003-11-25, 03:28:01,VALID,918.642,VALID,0,VALID,100,VALID,-0.118866,VALID,18.8779,VALID,16,VALID,0.759487,
2003-11-25, 03:29:01,VALID,918.624,VALID,0,VALID,100,VALID,-0.101885,VALID,18.894,VALID,24,VALID,0.291295,
2003-11-25, 03:30:01,VALID,918.622,VALID,0,VALID,100,VALID,-0.101885,VALID,18.8809,VALID,15,VALID,1.08611,
2003-11-25, 03:31:01,VALID,918.617,VALID,0,VALID,100,VALID,-0.101885,VALID,18.8779,VALID,11,VALID,0.843023,
2003-11-25, 03:32:01,VALID,918.596,VALID,0,VALID,100,VALID,-0.135847,VALID,18.8814,VALID,14,VALID,0.658681,
2003-11-25, 03:33:01,VALID,918.587,VALID,0,VALID,100,VALID,-0.135847,VALID,18.8749,VALID,25,VALID,0.967988,
2003-11-25, 03:34:01,VALID,918.581,VALID,0,VALID,100,VALID,-0.101885,VALID,18.868,VALID,10,VALID,0.916061,
2003-11-25, 03:35:01,VALID,918.552,VALID,0,VALID,100,VALID,-0.118866,VALID,18.8652,VALID,24,VALID,0.9375,
2003-11-25, 03:36:01,VALID,918.537,VALID,0,VALID,100,VALID,-0.0339617,VALID,18.8608,VALID,20,VALID,0.864826,
2003-11-25, 03:37:01,VALID,918.534,VALID,0,VALID,100,VALID,-0.0169808,VALID,18.8543,VALID,27,VALID,0.960756,
2003-11-25, 03:38:01,VALID,918.53,VALID,0.2,VALID,100,VALID,-0.0509425,VALID,18.8283,VALID,1,VALID,1.0633,
2003-11-25, 03:39:00,VALID,918.512,VALID,0,VALID,100,VALID,-0.0169808,VALID,18.8183,VALID,30,VALID,1.0071,
2003-11-25, 03:40:00,VALID,918.505,VALID,0,VALID,100,VALID,-0.0169808,VALID,18.835,VALID,13,VALID,0.594512,
2003-11-25, 03:41:00,VALID,918.499,VALID,0,VALID,100,VALID,-0.0169808,VALID,18.8313,VALID,19,VALID,0.308498,
2003-11-25, 03:42:00,VALID,918.482,VALID,0,VALID,100,VALID,-0.0339617,VALID,18.8181,VALID,18,VALID,0.486632,